Weather History for Ellsworth AFB, SD

Change the Weather History Date:

Friday, February 8, 2013

  Actual Average Record
Temperature  
Mean Temperature 34 °F -  
Max Temperature 41 °F 37 °F 66 °F (2000)
Min Temperature 26 °F 15 °F -9 °F (2011)
Degree Days  
Heating Degree Days 32    
Moisture  
Dew Point 21 °F    
Average Humidity 62    
Maximum Humidity 85    
Minimum Humidity 44    
Precipitation  
Precipitation 0.00 in - - ()
Sea Level Pressure  
Sea Level Pressure 29.92 in    
Wind  
Wind Speed 9 mph (NNE)    
Max Wind Speed 16 mph    
Max Gust Speed -    
Visibility 10 miles    
Events      
Averages and records for this station are not official NWS values.
T = Trace of Precipitation, MM = Missing Value Source: NWS Daily Summary

Daily Weather History Graph

Daily Weather History Graph

Search for Another Location

Airport:

Trip Planner

Search our weather history database for the weather conditions in past years. The results will help you decide how hot, cold, wet, or windy it might be!

Date:

Astronomy

Feb. 08, 2013 Rise Set
Actual Time 7:01 AM MST 5:12 PM MST
Civil Twilight 6:31 AM MST 5:42 PM MST
Nautical Twilight 5:56 AM MST 6:17 PM MST
Astronomical Twilight 5:23 AM MST 6:50 PM MST
Moon 5:33 AM MST (2/8) 3:47 PM MST (2/8)
Length of Visible Light 11h 11m
Length of Day
10h 11m
Waning Crescent, 3% of the Moon is Illuminated
Feb 8
Waning Crescent
Feb 10
New
Feb 17
First Quarter
Feb 25
Full
Mar 4
Last Quarter

Hourly Weather History & Observations

Time (MST) Temp. Windchill Dew Point Humidity Pressure Visibility Wind Dir Wind Speed Gust Speed Precip Events Conditions
12:55 AM 31.5 °F 21.4 °F 20.1 °F 63% 29.98 in 10.0 mi SSE 13.8 mph - N/A   Scattered Clouds
1:55 AM 32.4 °F 21.7 °F 20.3 °F 61% 29.96 in 10.0 mi SSE 16.1 mph - N/A   Overcast
2:55 AM 32.0 °F 22.5 °F 20.1 °F 62% 29.93 in 10.0 mi South 12.7 mph - N/A   Overcast
3:55 AM 31.1 °F 23.7 °F 20.7 °F 65% 29.93 in 10.0 mi SE 8.1 mph - N/A   Overcast
4:55 AM 33.6 °F - 19.4 °F 56% 29.92 in 10.0 mi Calm Calm - N/A   Mostly Cloudy
5:55 AM 31.3 °F 22.7 °F 19.6 °F 62% 29.94 in 10.0 mi SSE 10.4 mph - N/A   Mostly Cloudy
6:55 AM 28.4 °F 23.3 °F 19.2 °F 69% 29.94 in 10.0 mi SSE 4.6 mph - N/A   Clear
7:55 AM 28.0 °F - 20.1 °F 72% 29.96 in 10.0 mi Calm Calm - N/A   Partly Cloudy
8:55 AM 33.6 °F 26.8 °F 18.9 °F 55% 29.95 in 10.0 mi North 8.1 mph - N/A   Partly Cloudy
9:55 AM 37.2 °F 31.9 °F 20.5 °F 51% 29.94 in 10.0 mi NNE 6.9 mph - N/A   Scattered Clouds
10:55 AM 38.3 °F 31.4 °F 21.4 °F 51% 29.92 in 10.0 mi NNE 10.4 mph - N/A   Scattered Clouds
11:55 AM 40.8 °F 36.9 °F 20.5 °F 44% 29.91 in 10.0 mi NE 5.8 mph - N/A   Scattered Clouds
12:55 PM 41.0 °F 34.7 °F 22.8 °F 48% 29.89 in 10.0 mi North 10.4 mph - N/A   Scattered Clouds
1:55 PM 39.7 °F 33.2 °F 22.5 °F 50% 29.88 in 10.0 mi North 10.4 mph - N/A   Mostly Cloudy
2:55 PM 40.6 °F 34.3 °F 22.3 °F 48% 29.88 in 10.0 mi North 10.4 mph - N/A   Mostly Cloudy
3:55 PM 41.0 °F 35.8 °F 21.7 °F 46% 29.88 in 10.0 mi North 8.1 mph - N/A   Mostly Cloudy
4:55 PM 38.7 °F 35.2 °F 22.8 °F 53% 29.88 in 10.0 mi North 4.6 mph - N/A   Clear
5:55 PM 34.7 °F 29.6 °F 22.8 °F 62% 29.89 in 10.0 mi North 5.8 mph - N/A   Clear
6:55 PM 33.1 °F - 23.2 °F 67% 29.92 in 10.0 mi Calm Calm - N/A   Clear
7:55 PM 30.9 °F 23.5 °F 23.7 °F 75% 29.91 in 10.0 mi NNW 8.1 mph - N/A   Partly Cloudy
8:55 PM 26.8 °F 19.3 °F 21.9 °F 82% 29.91 in 10.0 mi NNW 6.9 mph - N/A   Clear
9:55 PM 26.6 °F 22.6 °F 21.7 °F 82% 29.91 in 10.0 mi North 3.5 mph - N/A   Clear
10:55 PM 29.1 °F 22.1 °F 23.4 °F 79% 29.89 in 10.0 mi NNE 6.9 mph - N/A   Partly Cloudy
11:55 PM 26.4 °F 18.9 °F 22.5 °F 85% 29.89 in 10.0 mi NNW 6.9 mph - N/A   Clear